METAR Formatted Surface Weather Observation
Issued by NWS Pocatello, ID

Home | Current Version | Previous Version | Text Only | Print | Product List | Glossary On
Versions: 1 2 3 4 5 6 7 8 9 10 11 12 13 14 15 16 17 18 19 20 21 22 23 24 25 26 27 28 29 30 31 32 33 34 35 36 37 38 39 40 41 42 43 44 45 46 47 48 49 50
953
SAUS45 KPIH 040552
MTRSNT
METAR KSNT 040551Z AUTO 09008KT M07/M11 A3010 RMK AO1 SLP198
T10721111 11044 21083 58013



USA.gov is the U.S. government's official web portal to all federal, state and local government web resources and services.